Location: Buckland
(65.9785°N, 161.1281°W)
Time: 02:41:17
(UTC+00:00)

Vanguard 2 Rocket - Pass Details

Date: 04 December 2020
Orbit: 554 x 3325 km, 32.9° (Epoch: 22 January)

Event Time Altitude Azimuth Distance (km) Brightness Sun altitude
Rises 18:27:20 0° 223° (SW) 7,068 11.3 -9.8°
Reaches altitude 10° 18:34:26 10° 208° (SSW) 6,243 11.2 -9.2°
Maximum altitude 18:45:18 18° 175° (S) 5,561 11.5 -8.3°
Drops below altitude 10° 18:55:34 10° 141° (SE) 5,853 12.6 -7.5°
Sets 19:01:49 0° 125° (SE) 6,476 13.7 -7.0°
